Location: Winthrop
(48.4780°N, 120.1850°W)
Time: 01:26:25
(UTC-08:00)

Vanguard 2 Rocket - All Passes

Search period start: 28 January 2023 00:00
Search period end: 07 February 2023 00:00
Orbit: 556 x 3318 km, 32.9° (Epoch: 27 January)

Date Brightness Start Highest point End Pass type
(mag) Time Alt. Az. Time Alt. Az. Time Alt. Az.
28 Jan - 14:44:28 10° SSW 14:47:06 14° S 14:50:16 10° SE daylight
28 Jan - 16:57:27 10° SSW 16:59:29 11° SSW 17:01:48 10° S daylight
29 Jan - 13:45:26 10° SSW 13:47:14 12° S 13:49:13 10° SSE daylight
29 Jan - 15:57:22 10° SSW 15:59:19 12° S 16:01:33 10° SSE daylight
30 Jan - 14:57:42 10° SSW 14:59:18 11° S 15:01:04 10° SSE daylight
31 Jan - 13:58:19 10° SSW 13:59:22 11° S 14:00:29 10° SSE daylight
05 Feb - 11:11:03 10° SSW 11:11:53 10° S 11:12:41 10° S daylight
06 Feb - 10:10:15 10° SSW 10:11:59 12° S 10:13:33 10° SSE daylight
